Showing default

ARVAKER-1, 63252

Orbit data source: Space-Track

ARVAKER-1, 63252 is a payload satellite owned by NSC (NO) in SSO that was launched on Sat, 15 Mar 2025 UTC via an FALCON 9 launch vehicle from the Air Force Western Test Range (AFWTR). Payload-class satellites include a variety of spacecraft equipped with specific instruments for various scientific and technological missions. These include communications satellites like Starlink; space stations such as the ISS; scientific satellites like the Hubble; Earth observation satellites from companies like Planet Labs, Umbra, and HawkEye 360; GPS; miniature CubeSats for education and research; and military/defense satellites.

Loading next visibility...
Identifier
63252, 2025-052AU
Orbit
SSO
Country
Flag of NONO / NOR
Related business
Manufacturer
NanoAvionics
Mission
Operational Commercial Sigint
Bus & Motor
MP42, Unknown motor
Mass
~100 kg wet, ~100 kg dry
Launch date (UTC)
2025-03-15 (1 year ago)
Launch vehicle
FALCON 9
Launch site
Air Force Western Test Range (AFWTR)
Object type
Payload
Rocket body
Debris
Shape & HBR
Box + 2 Pan, 0.8 m
Radar Cross Section
0.146 m², Medium (>0.1 m² and < 1m²)

Expand to show TLE details & history
Last TLE update: 6 hours ago

TLE from 6 hours ago
0 ARVAKER-1
1 63252U 25052AU  26175.17891167  .00002073  00000-0  19684-3 0  9996
2 63252  97.6871  66.2345 0002531 155.9070 204.2270 14.94584553 69653
Epoch: 2026-06-24T04:17Z
TLE epoch observation values (Epoch: 2026-06-24T04:17:37.968Z)
Latitude
0.00006°
Longitude
89.48645°
Altitude
588.317 km
Speed
7.565 km/s
True Right ascension
04h 24m 56s
True Declination
0° 00' 00"
Sunlit
Object was in daylight at epoch
Visualization orbit readout
Latitude
Unknown
Longitude
Unknown
Altitude
Unknown
Speed
Unknown
Apparent Right ascension
Unknown
Apparent Declination
Unknown
Sunlit
N/A
Visualization observer readout
Local Sidereal Time
21:54:17
Azimuth
Unknown
Elevation
Unknown
Doppler factor
Unknown
Orbital elements
Apogee altitude
582.436 km
Perigee altitude
578.913 km
Semi-major axis
6,958.811 km
Eccentricity
0.00025
Inclination
97.6871°
RAAN
66.2345°
Arg. of periapsis
155.907°
True anomaly
204.2151°
Mean anomaly
204.227°
Eccentric anomaly
204.22105°
Mean motion
3.73887 °/min
Orbital period
96.29 mins
BSTAR
0.00019684
Loading maneuver chart data...
Computing Atmospheric mass density...
Loading historical data...
Loading historical data...
Loading historical data...
Loading historical data...
Loading historical data...
Loading historical data...
Loading historical data...

Documentation

Showing up to 5 results
|